Regional Weather Roundup
Issued by NWS Nashville, TN

Home | Current Version | Previous Version | Text Only | Print | Product List | Glossary On
Versions: 1 2 3 4 5 6 7 8 9 10 11 12 13 14 15 16 17 18 19 20 21 22 23 24 25 26 27 28 29 30 31 32 33 34 35 36 37 38 39 40 41 42 43 44 45 46 47 48 49 50
000
ASUS44 KOHX 231515
RWROHX
MIDDLE TENNESSEE HOURLY WEATHER ROUNDUP
NATIONAL WEATHER SERVICE NASHVILLE TN
1000 AM CDT THU OCT 23 2014

NOTE: "FAIR" INDICATES FEW OR NO CLOUDS BELOW 12,000 FEET WITH
NO SIGNIFICANT WEATHER AND/OR OBSTRUCTIONS TO VISIBILITY.

* THESE REPORTS ARE NOT UNDER NWS QUALITY CONTROL AND MAY NOT
  REPORT WEATHER SUCH AS PRECIPITATION AND FOG.


TNZ005>011-023>034-057-059-062>066-078-080-231600
...NORTHERN MIDDLE TENNESSEE...

CITY           SKY/WX    TMP DP  RH WIND       PRES   REMARKS
CLARKSVILLE    SUNNY     52  44  74 SE7       30.23S
CROSSVILLE     SUNNY     49  39  68 VRB6      30.20F
NASHVILLE      MOSUNNY   52  42  69 E10       30.24R
SMYRNA         SUNNY     53  43  69 E9        30.24F
SPARTA         SUNNY     52  43  71 CALM      30.21S
$$
TNZ056-058-060-061-075>077-079-093>097-231600
...SOUTHERN MIDDLE TENNESSEE...

CITY           SKY/WX    TMP DP  RH WIND       PRES   REMARKS
COLUMBIA       SUNNY     52  50  93 E8        30.20R
FAYETTEVILLE   SUNNY     48  41  76 NE7       30.19R
MCMINNVILLE    SUNNY     48  46  93 NE7       30.20F
SHELBYVILLE    SUNNY     54  45  71 N6        30.22R
TULLAHOMA      SUNNY     50  41  71 NE5       30.20S
WINCHESTER     SUNNY     52  43  71 CALM      30.19S
$$


...KEY TO REMARKS...
VSB - VISIBILITY IN MILES
WCI - WIND CHILL INDEX
HX  - HEAT INDEX




USA.gov is the U.S. government's official web portal to all federal, state and local government web resources and services.